Flag for Poland Weather past 2 weeks in Bytom, Poland

Now
48 °F

Sunny.


Feels Like: 46 °F
Forecast: 43 / 69 °F
Wind: 5 mph from West

Location: Katowice Airport

Current Time: May 28, 2015 at 9:26:04 AM

Latest Report: May 28, 2015 at 9:00 AM


Visibility: 10 mi

Pressure: 30.07 "Hg

Humidity: 76%

Dew point: 41 °F

Location of BytomLocation

Historic Weather in Bytom — Graph

°F

Bytom temperature yesterday

Maximum temperature yesterday: 54 °F (at 12:30 PM)
Minimum temperature yesterday: 46 °F (at 5:00 AM)
Average temperature yesterday: 50 °F

Past Weeks' High & Low Weather Summary

 TemperatureHumidityPressure
High75 °F (May 19, 1:00 PM)100% (May 20, 4:30 AM)30.24 "Hg (May 20, 4:30 AM)
Low34 °F (May 15, 3:30 AM)28% (May 13, 3:00 PM)29.74 "Hg (May 14, 6:00 AM)
Average54 °F75%29.98 "Hg
* Reported May 13 8:00 AM — May 28 8:00 AM, Bytom, Weather by CustomWeather, © 2015

Note: Actual official high and low records may vary slightly from our data, if they occured in-between our weather recording intervals... More about our weather records

Advertising

Bytom weather history for previous 24 hours

 ConditionsComfort  
Time TempWeatherWind HumidityBarometerVisibility
8:00 AM
Thu, May 28
48 °FSunny.6 mph82%30.07 "Hg10 mi
7:30 AM46 °FSunny.5 mph87%30.07 "Hg10 mi
7:00 AM46 °FSunny.5 mph82%30.07 "Hg10 mi
6:30 AM46 °FSunny.3 mph87%30.07 "Hg10 mi
6:00 AM45 °FSunny.6 mph87%30.07 "Hg10 mi
5:30 AM46 °FClear.7 mph82%30.07 "Hg10 mi
5:00 AM46 °FClear.6 mph82%30.07 "Hg10 mi
4:30 AM46 °FClear.6 mph87%30.04 "Hg10 mi
4:00 AM45 °FClear.7 mph87%30.04 "Hg10 mi
3:30 AM46 °FClear.7 mph82%30.04 "Hg10 mi
3:00 AM46 °FClear.7 mph82%30.04 "Hg10 mi
2:30 AM46 °FClear.6 mph82%30.04 "Hg10 mi
2:00 AM48 °FClear.9 mph76%30.04 "Hg10 mi
1:30 AM46 °FClear.6 mph82%30.04 "Hg10 mi
1:00 AM48 °FClear.7 mph76%30.04 "Hg10 mi
12:30 AM48 °FClear.7 mph76%30.07 "Hg10 mi
12:00 AM48 °FClear.7 mph76%30.07 "Hg10 mi
11:30 PM
Wed, May 27
48 °FClear.8 mph76%30.07 "Hg10 mi
11:00 PM48 °FClear.9 mph76%30.07 "Hg10 mi
10:30 PM50 °FClear.9 mph71%30.04 "Hg10 mi
10:00 PM50 °FClear.10 mph71%30.04 "Hg10 mi
9:30 PM50 °FPassing clouds.10 mph71%30.04 "HgN/A
9:00 PM50 °FPassing clouds.8 mph71%30.04 "HgN/A
8:30 PM50 °FSunny.8 mph71%30.04 "Hg10 mi
8:00 PM50 °FSunny.9 mph71%30.04 "Hg10 mi
7:30 PM52 °FSunny.8 mph67%30.04 "Hg10 mi
7:00 PM52 °FSunny.9 mph67%30.04 "Hg10 mi
6:30 PM52 °FPartly sunny.15 mph62%30.04 "HgN/A
6:00 PM52 °FPartly sunny.13 mph67%30.01 "HgN/A
5:30 PM52 °FPartly sunny.12 mph62%30.01 "HgN/A
5:00 PM54 °FPartly sunny.13 mph58%30.01 "HgN/A
4:30 PM54 °FBroken clouds.16 mph63%30.01 "HgN/A
4:00 PM54 °FPartly sunny.15 mph58%30.01 "HgN/A
3:30 PM52 °FBroken clouds.17 mph58%30.01 "HgN/A
3:00 PM54 °FBroken clouds.13 mph63%30.01 "HgN/A
2:30 PM52 °FBroken clouds.13 mph62%30.01 "HgN/A
2:00 PM52 °FBroken clouds.15 mph62%30.01 "HgN/A
1:30 PM54 °FBroken clouds.13 mph58%30.01 "HgN/A
1:00 PM54 °FBroken clouds.13 mph58%30.01 "HgN/A
12:30 PM54 °FBroken clouds.13 mph58%30.01 "HgN/A
12:00 PM52 °FBroken clouds.14 mph67%30.01 "HgN/A
11:30 AM52 °FBroken clouds.14 mph62%30.01 "HgN/A
11:00 AM52 °FBroken clouds.13 mph58%30.01 "HgN/A
10:30 AM52 °FBroken clouds.17 mph67%30.01 "HgN/A
10:00 AM50 °FBroken clouds.13 mph71%30.01 "HgN/A
9:30 AM50 °FScattered clouds.13 mph71%30.01 "HgN/A
9:00 AM50 °FScattered clouds.12 mph71%29.98 "HgN/A
Weather by CustomWeather, © 2015

See weather overviewHow to use our weather pages